Probability
94 97 100 100 97 100 97 100 100 90 87 68 68 48 48 58 61 52 58 90 94 94 74 55 58 55 55 61 65 55 55 58 55 48 39 29 19 26 16 19 23 19 16
94 97 97 97 97 97 97 94 90 87 81 77 65 71 58 68 74 65 55 84 87 94 81 68 55 52 48 58 61 65 65 65 58 52 48 42 35 35 23 16 26 23 13
90 97 97 97 97 94 94 97 90 81 81 77 74 68 71 58 71 68 61 61 68 87 87 81 71 65 61 65 55 68 68 65 65 65 52 52 48 42 32 29 29 29 23
94 90 94 90 97 90 90 100 94 87 84 77 81 71 65 74 68 77 74 74 61 35 81 87 77 77 65 61 61 74 77 71 68 71 68 61 58 58 48 48 42 42 39
87 90 94 94 90 94 87 74 94 90 74 77 65 68 65 81 81 58 65 71 71 61 45 68 84 81 81 71 71 65 74 74 77 74 77 61 58 61 55 52 39 45 42
81 84 87 87 77 94 90 81 87 84 77 77 13 23 48 55 74 74 52 55 65 58 52 42 58 65 84 74 74 74 71 74 77 81 71 71 65 61 61 61 48 52 35
81 74 84 87 90 94 84 77 71 48 55 65 39 23 29 42 58 65 71 58 45 48 48 52 42 42 32 74 74 74 71 65 74 77 81 81 71 77 68 65 52 48 48
74 65 77 77 87 90 74 71 77 71 61 58 48 19 19 23 58 19 61 65 39 48 45 52 55 71 52 16 10 61 71 71 65 71 74 74 68 68 71 68 58 52 48
61 65 71 81 84 87 84 74 68 61 55 48 52 29 10 13 19 35 29 39 61 61 45 39 45 52 55 48 26 16 61 71 65 58 65 68 61 65 68 68 65 61 55
61 65 71 71 77 81 87 71 71 71 58 39 35 39 32 29 29 16 19 32 35 52 42 13 13 42 48 52 42 23 42 48 52 45 45 52 58 58 61 52 45 42 48
58 65 65 65 77 74 81 68 71 68 65 52 45 42 32 32 23 16 10 6 19 26 32 29 23 29 42 42 45 29 29 35 42 42 45 55 48 52 55 45 42 42 45
58 52 61 68 74 68 71 65 65 68 68 61 55 52 39 23 16 13 10 13 10 10 19 26 26 29 26 23 19 19 16 16 13 10 19 19 26 32 42 39 32 42 42
58 68 52 58 68 74 71 61 71 68 61 65 48 52 45 35 35 26 13 13 6 16 16 19 23 23 13 13 16 16 16 6 0 0 3 3 3 10 16 16 26 32 29
52 68 68 61 58 61 52 71 65 61 61 58 32 45 55 48 29 32 19 23 10 6 10 6 19 16 13 13 16 0 3 0 0 0 0 0 0 0 0 3 6 10 13
55 61 61 55 58 58 58 65 61 58 65 52 42 39 42 39 32 16 26 26 13 3 6 23 6 16 10 6 0 3 13 0 0 0 0 0 0 0 0 0 0 0 0
45 55 55 48 55 55 58 55 48 55 52 52 48 39 32 39 39 35 23 23 26 6 3 10 16 3 10 0 0 13 19 0 0 0 0 0 0 0 0 0 0 0 0
42 42 48 52 42 42 52 52 42 52 45 39 29 39 29 29 42 32 29 23 29 23 13 16 23 26 26 10 6 13 3 3 3 0 0 0 0 0 0 0 0 0 0
45 35 39 35 32 29 42 48 35 32 29 29 32 29 23 13 35 35 35 19 19 26 16 10 19 23 13 13 16 13 0 0 3 0 0 0 0 0 0 0 0 0 0
42 39 42 39 29 29 35 35 35 29 32 29 19 19 13 23 26 32 29 26 23 0 13 13 13 19 19 16 16 6 3 6 0 0 0 0 0 0 0 0 0 0 0
42 35 35 29 29 29 26 29 29 23 26 16 19 16 16 16 19 26 13 19 19 16 16 13 13 13 13 16 16 6 6 6 3 0 0 0 0 0 0 0 0 0 0
26 32 39 39 39 23 19 19 23 13 19 16 13 16 13 10 6 6 3 13 10 13 10 10 3 0 3 3 0 3 0 3 3 0 3 0 0 0 0 0 0 0 0
29 29 23 29 19 10 6 6 10 13 19 23 16 16 6 6 3 0 0 0 0 0 13 10 10 6 3 6 3 0 0 0 0 0 0 0 0 0 0 0 0 0 0
32 32 26 26 19 10 6 0 0 19 23 23 19 19 3 3 0 0 0 0 0 0 0 0 0 0 0 0 0 0 0 0 0 0 0 0 0 0 0 0 0 0 0
29 26 23 13 13 3 3 0 0 6 10 16 13 13 3 3 0 0 0 0 0 0 0 0 0 0 0 0 0 0 0 0 0 0 0 0 0 0 0 0 0 0 0
26 23 13 13 13 3 0 0 0 3 3 0 3 3 3 3 0 0 0 0 0 0 0 0 0 0 0 0 0 0 0 0 0 0 0 0 0 0 0 0 0 0 0
19 13 10 10 10 3 0 0 0 3 0 0 0 0 0 0 0 0 0 0 0 0 0 0 0 0 0 0 0 0 0 0 0 0 0 0 0 0 0 0 0 0 0
Height
5887 5888 5890 5891 5892 5893 5894 5895 5895 5896 5897 5897 5898 5898 5899 5899 5900 5901 5901 5902 5902 5903 5903 5903 5903 5903 5903 5903 5904 5904 5905 5905 5906 5906 5906 5907 5907 5907 5907 5907 5907 5907 5907
5886 5887 5889 5890 5892 5893 5894 5895 5895 5896 5897 5897 5898 5898 5899 5899 5900 5901 5901 5901 5902 5902 5903 5903 5903 5902 5902 5902 5903 5903 5904 5904 5905 5905 5905 5905 5905 5906 5906 5906 5906 5906 5906
5884 5886 5888 5890 5891 5892 5893 5894 5895 5896 5897 5897 5898 5898 5899 5900 5900 5901 5901 5901 5902 5902 5902 5902 5902 5902 5901 5902 5902 5902 5903 5903 5903 5903 5904 5904 5904 5904 5904 5904 5904 5904 5904
5883 5885 5887 5889 5890 5892 5893 5894 5895 5896 5897 5897 5898 5898 5899 5900 5900 5901 5901 5901 5901 5902 5902 5902 5902 5902 5901 5901 5901 5902 5902 5902 5902 5902 5902 5902 5902 5902 5903 5903 5902 5902 5902
5882 5884 5886 5887 5889 5891 5892 5893 5895 5895 5896 5897 5897 5898 5899 5899 5900 5900 5901 5901 5901 5901 5901 5901 5901 5901 5901 5901 5901 5901 5901 5901 5901 5901 5900 5901 5901 5901 5901 5901 5901 5901 5900
5880 5882 5884 5886 5888 5890 5892 5893 5894 5895 5896 5896 5897 5898 5898 5899 5900 5900 5901 5901 5901 5901 5901 5901 5901 5901 5901 5901 5901 5901 5901 5901 5900 5900 5899 5899 5900 5899 5899 5899 5899 5899 5899
5878 5880 5883 5885 5887 5889 5890 5892 5893 5894 5895 5896 5897 5897 5898 5898 5899 5900 5900 5901 5901 5901 5901 5901 5901 5901 5901 5901 5901 5901 5901 5900 5899 5899 5899 5899 5898 5898 5898 5898 5897 5897 5897
5876 5879 5881 5883 5885 5887 5889 5890 5892 5893 5894 5895 5895 5896 5897 5898 5898 5899 5900 5900 5900 5900 5900 5901 5901 5901 5901 5900 5900 5900 5900 5899 5899 5898 5898 5898 5897 5897 5896 5896 5896 5895 5895
5874 5877 5879 5881 5883 5885 5887 5889 5890 5891 5892 5893 5894 5895 5896 5897 5897 5898 5898 5899 5899 5899 5899 5899 5900 5899 5899 5899 5899 5899 5899 5898 5898 5897 5897 5897 5896 5896 5895 5895 5894 5893 5893
5872 5875 5877 5879 5881 5883 5885 5887 5888 5890 5891 5892 5893 5893 5895 5895 5896 5896 5897 5897 5898 5898 5898 5898 5898 5898 5898 5898 5897 5897 5897 5896 5896 5896 5895 5895 5894 5894 5893 5892 5892 5891 5890
5870 5872 5874 5876 5879 5881 5882 5884 5886 5888 5889 5890 5891 5891 5892 5893 5894 5895 5895 5896 5896 5896 5896 5896 5896 5896 5896 5896 5895 5895 5894 5894 5894 5893 5893 5892 5892 5891 5890 5889 5889 5888 5887
5868 5870 5871 5874 5876 5878 5880 5882 5883 5885 5886 5887 5888 5889 5890 5891 5891 5892 5893 5893 5893 5894 5894 5893 5893 5893 5893 5893 5892 5892 5891 5891 5890 5890 5889 5889 5888 5887 5886 5886 5885 5884 5883
5865 5867 5869 5871 5873 5875 5877 5879 5880 5882 5883 5884 5885 5886 5887 5888 5889 5889 5890 5890 5890 5891 5891 5890 5890 5890 5890 5890 5889 5889 5888 5887 5887 5886 5885 5884 5884 5883 5882 5881 5880 5879 5878
5862 5864 5866 5868 5870 5871 5873 5875 5877 5879 5880 5881 5882 5883 5884 5885 5886 5886 5887 5887 5887 5887 5887 5887 5887 5886 5886 5885 5884 5884 5883 5883 5882 5881 5880 5879 5878 5877 5876 5875 5874 5873 5872
5859 5861 5863 5864 5866 5868 5870 5871 5873 5875 5876 5877 5879 5880 5881 5881 5882 5882 5883 5883 5883 5883 5883 5883 5883 5882 5881 5880 5880 5879 5879 5877 5876 5875 5874 5873 5872 5871 5870 5868 5867 5866 5865
5856 5858 5859 5861 5862 5864 5866 5867 5869 5870 5872 5873 5874 5875 5876 5877 5877 5878 5878 5878 5878 5878 5878 5878 5877 5877 5876 5875 5874 5873 5873 5872 5871 5869 5868 5867 5865 5864 5862 5861 5859 5858 5856
5853 5854 5855 5857 5858 5860 5861 5863 5864 5865 5867 5868 5869 5870 5871 5872 5873 5873 5873 5873 5873 5873 5873 5872 5871 5871 5870 5869 5868 5867 5866 5865 5864 5862 5861 5859 5857 5856 5854 5852 5850 5849 5847
5850 5851 5852 5853 5854 5855 5857 5858 5859 5860 5862 5863 5864 5865 5866 5866 5867 5868 5868 5868 5868 5867 5867 5866 5865 5864 5863 5862 5860 5859 5858 5857 5856 5854 5853 5851 5848 5847 5845 5843 5841 5839 5837
5846 5847 5848 5849 5850 5851 5852 5853 5854 5856 5857 5858 5859 5860 5861 5861 5862 5862 5862 5862 5861 5861 5861 5860 5859 5858 5857 5855 5853 5851 5849 5848 5846 5845 5844 5841 5839 5837 5834 5832 5830 5827 5825
5842 5843 5844 5845 5846 5847 5848 5849 5850 5851 5852 5853 5854 5854 5855 5855 5856 5856 5856 5856 5855 5855 5854 5853 5852 5850 5849 5847 5845 5842 5841 5838 5836 5835 5833 5830 5828 5826 5824 5821 5818 5815 5812
5840 5840 5841 5841 5842 5843 5843 5844 5845 5846 5847 5848 5848 5849 5849 5849 5849 5849 5849 5849 5848 5847 5846 5845 5844 5842 5840 5838 5836 5834 5832 5829 5826 5824 5822 5819 5816 5814 5811 5808 5805 5802 5798
5836 5836 5837 5837 5838 5839 5839 5840 5840 5841 5842 5842 5843 5843 5843 5843 5843 5842 5842 5841 5840 5839 5838 5837 5835 5833 5831 5829 5826 5824 5821 5818 5816 5813 5810 5806 5803 5800 5797 5794 5791 5787 5784
5832 5832 5833 5833 5834 5834 5834 5835 5835 5836 5836 5837 5837 5837 5836 5836 5836 5835 5834 5833 5832 5831 5830 5828 5826 5824 5821 5819 5816 5813 5810 5806 5803 5800 5797 5794 5789 5786 5782 5778 5775 5772 5768
5828 5828 5828 5828 5828 5829 5829 5830 5830 5830 5830 5830 5830 5830 5829 5829 5829 5827 5826 5825 5824 5822 5820 5818 5816 5814 5811 5808 5805 5802 5798 5795 5790 5787 5784 5780 5776 5772 5767 5762 5758 5754 5750
5824 5824 5824 5824 5824 5824 5824 5824 5824 5824 5824 5824 5823 5823 5822 5821 5821 5819 5818 5817 5815 5813 5810 5808 5805 5802 5799 5796 5793 5789 5786 5782 5778 5774 5770 5766 5762 5758 5752 5747 5742 5737 5732
5819 5819 5819 5819 5819 5819 5819 5819 5819 5818 5817 5817 5816 5815 5814 5813 5812 5811 5809 5807 5805 5803 5800 5797 5794 5791 5787 5784 5780 5776 5772 5768 5764 5760 5756 5751 5746 5742 5737 5731 5725 5719 5714
Wind_Speed
10 8 7 7 7 6 6 6 5 5 4 4 3 2 3 3 3 1 2 2 1 1 2 2 3 4 5 5 5 5 5 5 6 6 6 5 5 5 5 5 5 5 5
11 9 8 7 7 7 6 5 5 4 4 4 3 2 2 2 2 2 1 2 2 1 2 2 3 4 4 4 4 5 5 6 6 6 7 6 6 6 5 6 6 6 6
11 10 9 8 7 7 6 5 5 4 4 4 3 3 3 3 2 2 1 1 1 1 2 2 2 3 2 2 3 4 4 5 6 6 7 7 7 7 7 7 7 7 7
12 11 10 9 8 7 6 6 5 4 4 4 3 3 3 3 2 2 1 1 1 1 1 1 2 2 1 1 1 2 3 4 5 5 5 6 6 7 7 7 7 7 7
13 12 11 10 9 8 7 6 5 5 4 5 4 4 3 3 3 2 1 1 1 1 1 1 1 1 1 1 1 1 2 3 4 5 5 5 5 5 6 7 7 7 7
14 13 12 11 10 10 8 7 6 5 5 6 5 5 4 3 3 3 2 2 1 1 1 1 1 1 1 1 1 2 2 3 3 4 4 4 5 5 5 5 6 7 7
14 13 13 12 11 11 10 9 8 7 7 6 6 5 5 5 4 3 3 2 2 1 1 1 1 1 2 1 2 2 3 3 4 4 4 3 4 5 6 6 6 7 7
14 14 13 13 12 12 11 10 9 8 8 7 7 7 6 5 5 5 4 4 3 3 3 3 3 3 3 3 3 4 4 5 5 5 4 4 5 5 6 7 7 7 8
15 15 14 14 13 12 12 11 10 10 9 8 8 7 7 6 6 6 6 5 5 5 5 5 5 5 5 5 6 6 6 6 6 6 6 6 7 7 7 8 8 9 9
16 16 15 15 14 14 13 12 12 11 11 10 10 9 9 8 8 8 7 7 7 7 7 7 7 7 7 8 8 9 9 8 8 8 8 9 9 10 10 11 11 11 12
15 16 16 16 16 15 14 14 14 13 12 12 11 11 10 10 9 9 9 9 9 9 9 10 10 10 10 10 11 11 11 11 11 11 11 12 12 13 13 14 14 15 15
15 15 16 16 17 17 16 16 15 15 14 13 13 13 12 12 12 12 11 11 11 11 11 12 12 12 12 12 13 13 13 13 13 14 14 15 16 16 17 17 18 18 18
15 16 16 16 17 18 18 17 16 16 15 15 14 14 14 14 14 13 13 13 13 14 14 14 15 15 15 15 15 15 15 16 16 17 18 18 19 19 20 20 21 22 22
16 17 17 16 17 18 19 19 18 18 17 16 16 16 16 16 16 16 16 16 16 16 16 16 17 17 18 18 18 18 18 19 20 20 21 21 22 23 23 24 24 25 26
16 17 18 17 18 20 20 20 20 20 19 18 18 18 18 18 18 19 19 19 19 19 19 19 20 20 21 21 21 22 21 22 23 23 24 25 25 26 27 27 28 28 29
15 16 17 18 19 20 21 21 21 21 21 21 21 20 21 21 20 21 21 21 21 22 22 23 23 23 23 24 24 24 24 25 26 27 28 28 29 30 30 31 31 32 32
15 16 17 18 19 21 21 22 22 23 23 22 22 22 22 22 22 22 22 23 23 23 24 25 25 25 26 27 28 28 28 28 30 31 31 32 32 33 33 34 35 35 36
17 18 18 19 19 20 22 22 22 23 23 23 22 23 23 23 23 23 23 24 25 25 25 25 26 27 28 29 30 31 31 31 32 33 34 35 35 36 37 37 38 38 39
18 18 18 18 19 20 21 20 21 21 21 22 22 23 24 25 25 25 25 25 25 26 26 28 29 29 30 31 32 32 33 34 35 35 36 37 38 39 40 40 41 42 43
17 18 18 18 18 19 19 19 20 21 21 22 22 22 24 24 25 25 26 26 27 28 29 30 31 31 32 33 34 34 36 37 37 37 38 40 41 42 43 44 45 46 46
16 16 17 17 18 19 19 20 20 21 21 22 22 23 24 24 25 25 27 28 29 30 31 31 32 33 34 35 35 36 38 39 40 40 41 42 43 44 45 46 47 48 49
15 15 15 16 17 18 19 20 20 21 22 23 24 25 25 26 27 27 28 29 31 32 33 34 34 35 35 36 37 38 39 40 42 43 44 45 46 47 48 48 49 50 51
15 16 17 17 18 18 19 20 21 22 24 25 25 26 26 27 28 29 29 30 32 33 34 36 36 37 37 38 39 40 41 43 45 46 46 47 49 50 51 52 53 53 54
16 17 17 18 19 20 20 21 22 24 25 26 26 26 27 28 28 29 30 31 32 34 36 37 38 39 40 40 42 43 44 46 47 48 48 48 49 51 52 54 55 56 56
18 18 18 19 20 21 23 24 24 26 27 28 28 28 29 30 30 30 32 33 34 36 36 38 39 41 42 43 44 45 46 46 47 48 49 50 51 52 54 56 57 57 58
19 19 20 21 22 24 25 25 26 27 28 29 29 30 31 31 31 32 33 35 36 37 38 40 41 42 44 44 45 45 46 47 49 50 51 52 53 54 54 55 56 57 58
Wind_Direction
227 220 219 216 211 206 203 199 192 189 185 185 181 172 176 180 187 187 199 211 221 227 243 259 277 283 273 271 264 256 258 263 261 263 263 264 269 279 282 278 280 275 272
224 222 223 227 219 212 208 203 198 195 193 189 182 183 185 177 176 178 191 200 207 237 258 272 287 301 282 270 260 257 259 263 267 268 264 262 265 273 281 283 281 277 274
223 224 225 225 218 212 209 206 208 205 202 196 187 183 187 182 178 175 193 201 214 246 267 278 300 317 308 282 269 263 265 266 266 271 266 264 264 267 271 276 283 281 276
221 224 225 225 222 215 214 217 216 215 211 208 201 192 188 184 182 181 176 198 211 257 290 299 305 328 348 331 300 279 273 277 274 278 277 271 270 268 268 273 283 284 283
223 223 225 227 223 221 222 223 223 221 217 214 208 204 206 202 202 208 209 209 226 270 317 341 346 352 3 8 339 316 305 307 300 285 280 268 271 276 274 274 280 284 286
225 225 225 224 221 223 227 227 228 227 223 219 217 217 219 224 223 221 222 219 229 263 293 311 352 348 5 24 16 358 351 350 339 319 299 278 273 280 285 285 284 286 286
219 222 221 220 221 224 227 229 231 231 230 227 223 224 228 236 237 235 233 230 237 258 278 282 302 317 329 336 339 341 344 348 347 334 322 306 293 288 287 287 288 289 288
216 218 221 223 223 226 229 230 231 234 234 232 229 230 234 242 244 244 245 247 252 262 268 271 275 284 292 294 298 309 321 326 328 323 311 308 305 299 294 290 289 289 287
219 219 222 225 226 229 232 230 234 235 236 236 235 237 238 242 246 249 254 257 262 269 273 275 279 279 280 287 291 295 303 309 310 307 302 298 299 300 299 298 295 293 291
221 223 224 228 229 231 232 232 235 237 240 242 242 243 245 248 252 255 260 261 265 271 276 277 279 281 282 284 287 291 292 294 296 298 298 296 294 293 293 295 296 294 293
220 225 227 231 233 233 234 234 237 240 244 246 246 246 250 255 257 259 264 265 268 274 279 280 279 281 284 286 287 288 289 289 289 291 292 293 293 292 291 291 290 289 290
225 228 230 234 235 236 237 236 239 242 246 247 247 249 254 258 259 261 264 267 270 276 280 282 280 281 284 286 286 287 287 287 287 288 288 289 289 290 290 290 290 289 289
229 231 233 236 236 238 240 241 241 244 246 246 247 250 255 259 261 263 265 267 270 275 278 281 280 281 284 287 286 285 285 285 285 286 287 288 288 288 288 288 288 288 288
234 234 237 241 240 240 242 243 244 247 246 247 249 253 257 260 261 262 265 268 271 274 275 279 280 281 285 286 285 284 283 283 283 284 285 287 288 288 287 286 286 286 286
240 239 240 244 243 242 242 243 244 246 248 249 252 255 259 261 263 264 266 270 273 275 277 278 279 282 284 284 282 283 283 284 284 284 285 286 286 287 287 286 286 286 285
243 243 244 246 244 242 242 245 247 248 249 251 254 257 260 261 264 266 269 272 274 276 278 279 280 281 282 283 283 284 285 285 285 285 287 287 287 287 287 287 286 285 285
245 245 247 250 250 246 244 245 248 249 251 252 255 258 259 261 264 268 270 271 274 276 278 280 282 282 282 283 284 285 286 286 285 286 286 287 287 287 287 287 287 286 286
249 251 252 252 252 249 247 248 251 252 254 256 257 258 260 262 264 267 270 272 274 277 278 281 283 284 285 285 285 286 286 286 286 285 286 287 287 288 288 288 287 286 286
255 254 256 255 253 252 252 252 254 255 255 256 259 261 263 264 266 269 271 273 275 278 279 282 284 284 285 286 286 287 288 289 288 286 286 286 287 288 288 288 287 286 285
262 258 258 258 259 256 255 256 257 259 259 261 263 265 266 268 269 270 272 274 277 278 280 282 284 285 285 286 287 288 289 290 290 289 288 288 288 287 287 287 287 286 286
268 261 259 260 260 258 258 259 260 260 261 261 263 265 267 269 270 272 273 275 277 278 280 283 284 285 286 287 288 289 290 290 290 289 289 288 288 288 288 287 287 286 286
270 263 262 261 263 262 261 260 261 262 263 265 266 267 269 270 272 273 275 276 278 279 281 283 284 286 287 288 290 290 290 290 289 289 289 289 290 289 289 288 288 288 287
272 268 267 263 264 264 263 264 264 266 267 267 270 271 272 274 277 278 280 280 280 281 283 284 284 285 286 289 290 290 290 290 291 290 290 290 290 290 290 290 290 289 289
276 272 270 268 268 268 268 269 271 270 271 272 273 274 275 278 280 280 281 283 284 284 284 285 285 287 288 290 291 291 291 291 292 292 291 291 291 291 291 291 291 291 290
277 275 275 272 272 271 271 271 273 273 273 273 274 275 276 278 279 280 282 284 286 286 287 288 289 290 290 291 291 292 292 292 292 292 292 291 292 292 292 292 292 291 291
278 276 275 276 274 273 275 276 276 276 276 277 278 277 277 278 280 281 283 285 287 288 289 290 291 291 292 292 293 292 292 292 293 293 293 293 293 293 293 293 293 292 292